{"data":{"norad_id":60600,"epoch":"2026-09-21T20:06:04.477248Z","epoch_age_seconds":72868,"freshness":"FRESH","line1":"1 60600U 24150T   26264.83755182  .00000641  00000+0  30118-4 0  9990","line2":"2 60600  53.1596 115.1502 0001220  99.3628 260.7512 15.34385213118086","mean_motion":15.34385213,"eccentricity":0.000122,"inclination_deg":53.1596,"raan_deg":115.1502,"arg_perigee_deg":99.3628,"mean_anomaly_deg":260.7512,"bstar":3.0118e-5,"rev_number":11808,"period_min":93.848662500112,"perigee_km":461.91260276903,"apogee_km":463.58177851154,"semimajor_km":6840.8841906403,"source":"CELESTRAK","updated_at":"2026-09-22T09:00:49.275234Z"}}